Flag Weather past 2 weeks in Peristeri, Greece

Now
57 °F

Passing clouds.


Feels Like: 55 °F
Forecast: 49 / 60 °F
Wind: 9 mph from North

Location: Elefsis Airport

Current Time: Nov 21, 2014 at 1:55:01 AM

Latest Report: Nov 21, 2014 at 12:50 AM


Visibility: N/A

Pressure: 30.07 "Hg

Humidity: 59%

Dew point: 43 °F

Location of PeristeriLocation

Historic Weather in Peristeri — Graph

°F

Peristeri temperature yesterday

Maximum temperature yesterday: 68 °F (at 2:50 PM)
Minimum temperature yesterday: 55 °F (at 7:50 AM)
Average temperature yesterday: 61 °F

Past Weeks' High & Low Weather Summary

 TemperatureHumidityPressure
High73 °F (Nov 17, 1:50 PM)100% (Nov 17, 5:20 PM)30.24 "Hg (Nov 17, 5:20 PM)
Low50 °F (Nov 16, 3:20 AM)32% (Nov 20, 10:50 AM)29.74 "Hg (Nov 14, 4:20 AM)
Average62 °F76%30.01 "Hg
* Reported Nov 6 12:20 AM — Nov 21 12:20 AM, Peristeri, Weather by CustomWeather, © 2014

Note: Actual official high and low records may vary slightly from our data, if they occured in-between our weather recording intervals... More about our weather records

Advertising

Peristeri weather history for previous 24 hours

 ConditionsComfort  
Time TempWeatherWind HumidityBarometerVisibility
12:20 AM
Nov 21
55 °FPassing clouds.No wind63%30.07 "HgN/A
11:50 PM
Nov 20
57 °FPassing clouds.No wind55%30.07 "HgN/A
11:20 PM57 °FPassing clouds.5 mph55%30.07 "HgN/A
10:50 PM57 °FPassing clouds.5 mph55%30.07 "HgN/A
10:20 PM59 °FPassing clouds.9 mph51%30.07 "HgN/A
9:50 PM59 °FPassing clouds.10 mph51%30.07 "HgN/A
9:20 PM57 °FPassing clouds.5 mph55%30.04 "HgN/A
8:50 PM57 °FPassing clouds.5 mph55%30.04 "HgN/A
8:20 PM57 °FPassing clouds.7 mph59%30.04 "HgN/A
7:50 PM57 °FPassing clouds.7 mph59%30.04 "HgN/A
7:20 PM57 °FPassing clouds.5 mph63%30.04 "HgN/A
6:50 PM57 °FPassing clouds.5 mph63%30.04 "HgN/A
6:20 PM59 °FPassing clouds.No wind55%30.04 "HgN/A
5:50 PM59 °FPassing clouds.No wind51%30.01 "HgN/A
5:20 PM61 °FPassing clouds.7 mph48%30.01 "HgN/A
4:50 PM63 °FPassing clouds.7 mph42%30.01 "HgN/A
3:50 PM66 °FPassing clouds.9 mph37%30.01 "HgN/A
3:20 PM66 °FPassing clouds.8 mph35%30.01 "HgN/A
2:50 PM68 °FPassing clouds.7 mph33%30.01 "HgN/A
2:20 PM66 °FPassing clouds.5 mph35%29.98 "HgN/A
1:50 PM66 °FPassing clouds.7 mph37%30.01 "HgN/A
1:20 PM66 °FPassing clouds.6 mph35%30.01 "HgN/A
12:50 PM66 °FPassing clouds.13 mph35%30.01 "HgN/A
12:20 PM66 °FPassing clouds.8 mph35%30.04 "HgN/A
11:50 AM66 °FPassing clouds.13 mph35%30.04 "HgN/A
11:20 AM66 °FPassing clouds.10 mph32%30.04 "HgN/A
10:50 AM66 °FSunny.8 mph32%30.04 "Hg10 mi
9:50 AM64 °FPassing clouds.7 mph40%30.04 "HgN/A
8:50 AM63 °FPassing clouds.5 mph49%30.04 "HgN/A
8:20 AM59 °FPassing clouds.5 mph59%30.01 "HgN/A
7:50 AM55 °FPassing clouds.No wind72%30.01 "HgN/A
7:20 AM59 °FPassing clouds.No wind59%30.01 "HgN/A
6:50 AM57 °FPassing clouds.3 mph67%29.98 "HgN/A
6:20 AM59 °FPassing clouds.5 mph63%29.98 "HgN/A
5:50 AM61 °FPassing clouds.3 mph63%29.98 "HgN/A
5:20 AM63 °FPassing clouds.6 mph56%29.98 "HgN/A
4:50 AM61 °FPassing clouds.No wind63%29.98 "HgN/A
4:20 AM61 °FPassing clouds.6 mph59%29.98 "HgN/A
3:50 AM61 °FPassing clouds.5 mph59%29.98 "HgN/A
2:50 AM63 °FPassing clouds.7 mph52%29.98 "HgN/A
1:20 AM64 °FPassing clouds.13 mph49%29.98 "HgN/A
Weather by CustomWeather, © 2014

See weather overviewHow to use our weather pages